Location: Central Coast
(33.3208°S, 151.2336°E)
Time: 01:31:55
(UTC+11:00)

OTV 5 (USA 277) - Pass Details

Date: 13 October 2017
Orbit: 404 x 417 km, 43.0° (Epoch: 07 September)

Event Time Altitude Azimuth Distance (km) Brightness Sun altitude
Exits shadow 05:08:51 13° 349° (NNW) 1,288 ? -14.6°
Maximum altitude 05:11:04 24° 39° (NE) 886 ? -14.2°
Drops below altitude 10° 05:13:49 10° 95° (E) 1,472 ? -13.6°
Sets 05:16:10 0° 109° (ESE) 2,339 ? -13.2°
